Regional Weather Roundup
Issued by NWS Sioux Falls, SD

Home | Current Version | Previous Version | Text Only | Print | Product List | Glossary Off
Versions: 1 2 3 4 5 6 7 8 9 10 11 12 13 14 15 16 17 18 19 20 21 22 23 24 25 26 27 28 29 30 31 32 33 34 35 36 37 38 39 40 41 42 43 44 45 46 47 48 49 50

357
ASUS43 KFSD 220402
RWRFSD

WEATHER ROUNDUP FOR SE SOUTH DAKOTA/SW MINNESOTA/NW IOWA
NATIONAL WEATHER SERVICE SIOUX FALLS SD
1100 PM CDT THU SEP 21 2017

NOTE: "FAIR" INDICATES FEW OR NO CLOUDS BELOW 12,000 FEET WITH NO
SIGNIFICANT WEATHER AND OR OBSTRUCTIONS TO VISIBILITY.


SDZ038>040-050-052>070-220500-
SOUTHEAST SOUTH DAKOTA

CITY           SKY/WX    TMP DP  RH WIND       PRES   REMARKS
BROOKINGS      CLEAR     73  70  90 SE9       29.73S
CHAMBERLAIN    NOT AVBL
HURON          CLEAR     75  70  84 SE9       29.65S
MADISON        FAIR      75  75 100 SE10      29.73S
MITCHELL       CLEAR     78  71  79 SE10      29.65S
SIOUX FALLS    CLEAR     79  72  79 S10       29.72S
WINNER         FAIR      67  60  78 E7        29.61F
YANKTON        CLEAR     81  72  74 SE15G23   29.69R
$$

MNZ071-072-080-081-089-090-097-098-220500-
SOUTHWEST MINNESOTA

CITY           SKY/WX    TMP DP  RH WIND       PRES   REMARKS
FAIRMONT       PTCLDY    77  71  82 S13       29.81R
JACKSON        CLEAR     77  70  78 S13G18    29.81R
MARSHALL       CLEAR     73  70  90 SE7       29.74S
MONTEVIDEO     PTCLDY    73  70  88 S7        29.74S
PIPESTONE      CLEAR     75  72  88 S7        29.76S
REDWOOD FALLS  PTCLDY    76  69  79 SE9       29.76R
TRACY          CLEAR     77  72  85 S9        29.76R
$$

IAZ001>003-012>014-020>022-031-032-NEZ013-014-SDZ071-220500-
NORTHWEST IOWA

CITY           SKY/WX    TMP DP  RH WIND       PRES   REMARKS
CHEROKEE       CLEAR     76  73  90 S7        29.79R
DENISON        CLEAR     79  72  78 S15G21    29.82R
ESTHERVILLE    CLEAR     76  72  87 S14       29.80R
LE MARS        CLEAR     81  73  78 S14       29.75R
ORANGE CITY    CLEAR     81  75  83 S12       29.77R
SHELDON        CLEAR     75  72  88 S12       29.76R
SIOUX CITY     CLEAR     80  74  81 S12       29.75R
SPENCER        CLEAR     77  71  82 S13       29.80R
STORM LAKE     CLEAR     75  72  88 S10       29.82R
$$

ABBREVIATIONS USED IN REMARKS
   TC - TEMPERATURE IN CELSIUS
  WCI - WIND CHILL INDEX
   HX - HEAT INDEX
  VSB - VISIBILITY





USA.gov is the U.S. government's official web portal to all federal, state and local government web resources and services.